Location: Marseilles
(40.7010°N, 83.3930°W)
Time: 06:50:54
(UTC-04:00)

Cosmos 1459 Rocket - Visible Passes

Search period start: 31 August 2015 00:00
Search period end: 10 September 2015 00:00
Orbit: 938 x 1000 km, 83.0° (Epoch: 29 August)

Date Brightness Start Highest point End Pass type
(mag) Time Alt. Az. Time Alt. Az. Time Alt. Az.
31 Aug 5.8 01:49:12 10° NNE 01:53:02 23° NE 01:53:02 23° NE visible
31 Aug 5.1 03:33:44 10° NNW 03:37:32 35° NW 03:37:32 35° NW visible
01 Sep 5.4 02:12:04 10° N 02:16:01 33° NE 02:16:01 33° NE visible
01 Sep 5.6 03:57:44 10° NNW 04:00:31 22° NW 04:00:31 22° NW visible
02 Sep 6.5 00:53:52 10° NE 00:54:32 11° NE 00:54:32 11° NE visible
02 Sep 5.2 02:35:18 10° N 02:39:02 37° N 02:39:02 37° N visible
02 Sep 6.1 04:22:23 10° NW 04:23:32 13° NW 04:23:32 13° NW visible
03 Sep 6.2 01:14:52 10° NNE 01:17:33 17° NE 01:17:33 17° NE visible
03 Sep 5.4 02:58:49 10° NNW 03:02:04 32° NNW 03:02:04 32° NNW visible
04 Sep 5.9 01:37:29 10° N 01:40:35 25° NNE 01:40:35 25° NNE visible
04 Sep 5.7 03:22:38 10° NNW 03:25:06 22° NW 03:25:06 22° NW visible
05 Sep 5.7 02:00:35 10° N 02:03:40 29° NNE 02:03:40 29° NNE visible
05 Sep 6.1 03:46:55 10° NW 03:48:10 14° NW 03:48:10 14° NW visible
06 Sep 6.4 00:40:49 10° NNE 00:42:14 13° NE 00:42:14 13° NE visible
06 Sep 5.7 02:23:58 10° N 02:26:44 28° N 02:26:44 28° N visible
07 Sep 6.1 01:03:01 10° NNE 01:05:19 19° NNE 01:05:19 19° NNE visible
07 Sep 5.9 02:47:38 10° NNW 02:49:50 22° NNW 02:49:50 22° NNW visible
08 Sep 6.0 01:25:55 10° N 01:28:26 23° NNE 01:28:26 23° NNE visible
08 Sep 6.2 03:11:40 10° NNW 03:12:56 15° NW 03:12:56 15° NW visible
09 Sep 5.9 01:49:11 10° N 01:51:33 24° N 01:51:33 24° N visible
